sat.trackr.live / text

‹ back to catalog

GEESAT-3 10

NORAD 61020 · 2024-159K

PAYLOAD ACTIVE UNKNOWN

§ Identity

Operator
Country
PRC
Launch date
2024-09-05
Launch site
TAISC
Launch vehicle
Mass (kg)
RCS (m²)

External: N2YO · Heavens-Above · Gunter

§ Orbital elements

Epoch: 2026-09-22T20:15:55.846368Z

Period
97.00 min
Inclination
50.0013°
Eccentricity
0.0003729
Mean motion
14.84517503 rev/d
Perigee alt
612.5 km
Apogee alt
617.7 km
Semi-major
6,993.2 km
B*
1.5225e-4
RAAN
350.1655°
Arg perigee
131.0967°
Mean anomaly
229.0294°
Rev number
11,101

§ Raw data

GEESAT-3 101 61020U 24159K   26265.84439637  .00001069  00000+0  15225-3 0  99982 61020  50.0013 350.1655 0003729 131.0967 229.0294 14.84517503111013

JSON: /api/v1/satellites/61020 · /tle

For live sub-satellite position, see the globe view (requires WebGL).

§ Visibility from observer

Set your observer location to see the next 7 days of passes ≥ 10°. The values pass through the URL so the page stays shareable.

No JS? Fill the form by hand. The geolocation button needs JavaScript.